Regional Weather Roundup
Issued by NWS

Home | Current Version | Previous Version | Text Only | Print | Product List | Glossary Off
Versions: 1 2 3 4 5 6 7 8 9 10 11 12 13 14 15 16 17 18 19 20 21 22 23 24 25 26 27 28 29 30 31 32 33 34 35 36 37 38 39 40 41 42 43 44 45 46 47 48 49 50

000
ASUS43 KLMK 231102
RWRKY
KENTUCKY REGIONAL WEATHER ROUNDUP
NATIONAL WEATHER SERVICE LOUISVILLE KY
700 AM EDT SAT AUG 23 2014

NOTE "FAIR" INDICATES FEW OR NO CLOUDS BELOW 12,000 FEET
WITH NO SIGNIFICANT WEATHER AND/OR OBSTRUCTIONS TO VISIBILITY.

KYZ001>023-026-027-061>063-070>075-231200-
WESTERN AND SOUTH CENTRAL KENTUCKY

CITY           SKY/WX    TMP DP  RH WIND       PRES   REMARKS
PADUCAH        CLOUDY    79  74  84 S5        29.97R
HENDERSON      MOCLDY    73  70  88 S3        29.96S
OWENSBORO      CLOUDY    74  74 100 S6        29.98S
HOPKINSVILLE   LGT RAIN  75  74  99 SE2       30.01S
BOWLING GREEN  MOCLDY    74  71  91 CALM      30.00S
GLASGOW        CLOUDY    74  74 100 CALM      30.01S
$$

KYZ024-025-028>034-038-045-046-053-231200-
NORTH CENTRAL KENTUCKY

CITY           SKY/WX    TMP DP  RH WIND       PRES   REMARKS
LOUISVILLE/SDF CLOUDY    74  71  91 SE3       29.99R
LOUISVILLE/LOU PTCLDY    72  71  97 CALM      30.00R FOG
FORT KNOX      MOCLDY    70  66  88 CALM      29.99S HAZE
$$

KYZ035>037-039>044-047>052-055>060-089>105-231200-
NORTHEAST KENTUCKY

CITY           SKY/WX    TMP DP  RH WIND       PRES   REMARKS
LEXINGTON      CLEAR     71  68  90 CALM      30.02R FOG
COVINGTON      PTCLDY    70  68  93 CALM      30.00R FOG
FRANKFORT      MOCLDY    69  68  96 CALM      30.00R
$$

KYZ054-064>069-076>088-106>120-231200-
SOUTHEAST KENTUCKY

CITY           SKY/WX    TMP DP  RH WIND       PRES   REMARKS
JACKSON        FOG       69  67  93 CALM      30.03R VSB 1/2
LONDON         CLOUDY    74  71  91 CALM      30.04R
SOMERSET       PTCLDY    72  72 100 CALM      30.04R FOG
MIDDLESBORO    MOCLDY    71  70  98 CALM      30.04R
MONTICELLO     PTSUNNY   71  71 100 CALM      30.04S FOG
$$



USA.gov is the U.S. government's official web portal to all federal, state and local government web resources and services.